Del Rio, TX

3:10 AM CDT on May 26, 2017 (GMT -0500)
Del Rio International

Weather History for KDRT - February, 2013

Change the Weather History Date:

Sunday, February 24, 2013

  Actual Average Record
Temperature  
Mean Temperature 64 °F 59 °F  
Max Temperature 78 °F 71 °F 90 °F (1972)
Min Temperature 49 °F 47 °F 29 °F (2003)
Degree Days  
Heating Degree Days 1 7  
Month to date heating degree days 102 220  
Since 1 July heating degree days 848 1210  
Cooling Degree Days 0 1  
Month to date cooling degree days 15 8  
Year to date cooling degree days 39 11  
Growing Degree Days 13 (Base 50)    
Moisture  
Dew Point 45 °F    
Average Humidity 57    
Maximum Humidity 78    
Minimum Humidity 35    
Precipitation  
Precipitation 0.00 in 0.03 in 1.46 in (1992)
Month to date precipitation T 0.72  
Year to date precipitation 1.33 1.44  
Sea Level Pressure  
Sea Level Pressure 29.67 in    
Wind  
Wind Speed 13 mph (ESE)    
Max Wind Speed 26 mph    
Max Gust Speed 32 mph    
Visibility 10 miles    
Events      
T = Trace of Precipitation, MM = Missing Value Source: NWS Daily Summary

Daily Weather History Graph

Daily Weather History Graph

Search for Another Location

Airport or City:

Trip Planner

Search our weather history database for the weather conditions in past years. The results will help you decide how hot, cold, wet, or windy it might be!

Date:

Astronomy

Feb. 24, 2013 Rise Set
Actual Time 7:14 AM CST 6:39 PM CST
Civil Twilight 6:50 AM CST 7:03 PM CST
Nautical Twilight 6:22 AM CST 7:31 PM CST
Astronomical Twilight 5:54 AM CST 7:59 PM CST
Moon 5:52 PM CST (2/24) 6:10 AM CST (2/24)
Length of Visible Light 12h 13m
Length of Day
11h 25m
Waxing Gibbous, 99% of the Moon is Illuminated
Feb 24
Waxing Gibbous
Feb 25
Full
Mar 4
Last Quarter
Mar 11
New
Mar 19
First Quarter

Hourly Weather History & Observations

Time (CST) Temp. Dew Point Humidity Pressure Visibility Wind Dir Wind Speed Gust Speed Precip Events Conditions
12:53 AM 54.0 °F 28.0 °F 37% 29.82 in 10.0 mi ESE 8.1 mph - N/A   Clear
1:53 AM 53.1 °F 30.0 °F 41% 29.81 in 10.0 mi East 5.8 mph - N/A   Clear
2:53 AM 50.0 °F 30.9 °F 48% 29.80 in 10.0 mi ESE 5.8 mph - N/A   Clear
3:53 AM 52.0 °F 34.0 °F 50% 29.79 in 10.0 mi ESE 6.9 mph - N/A   Clear
4:53 AM 48.9 °F 33.1 °F 54% 29.78 in 10.0 mi East 8.1 mph - N/A   Clear
5:53 AM 48.2 °F 33.8 °F 58% 29.81 in 10.0 mi East 8.1 mph - N/A   Clear
6:53 AM 48.9 °F 36.0 °F 61% 29.79 in 10.0 mi ESE 8.1 mph - N/A   Clear
7:53 AM 50.0 °F 37.9 °F 63% 29.80 in 10.0 mi East 9.2 mph - N/A   Clear
8:53 AM 55.9 °F 42.1 °F 60% 29.79 in 10.0 mi SE 11.5 mph - N/A   Clear
9:53 AM 60.1 °F 45.0 °F 57% 29.79 in 10.0 mi SSE 18.4 mph 27.6 mph N/A   Clear
10:53 AM 64.9 °F 45.0 °F 48% 29.76 in 10.0 mi SE 21.9 mph 28.8 mph N/A   Clear
11:53 AM 70.0 °F 46.9 °F 44% 29.73 in 10.0 mi SSE 16.1 mph 21.9 mph N/A   Clear
12:53 PM 72.0 °F 48.9 °F 44% 29.68 in 10.0 mi SE 19.6 mph 27.6 mph N/A   Clear
1:53 PM 73.9 °F 50.0 °F 43% 29.62 in 10.0 mi ESE 17.3 mph 26.5 mph N/A   Clear
2:53 PM 75.9 °F 48.9 °F 38% 29.58 in 10.0 mi ESE 12.7 mph 28.8 mph N/A   Clear
3:53 PM 77.0 °F 50.0 °F 39% 29.56 in 10.0 mi SSE 19.6 mph - N/A   Clear
4:53 PM 77.0 °F 50.0 °F 39% 29.53 in 10.0 mi ESE 13.8 mph 25.3 mph N/A   Clear
5:53 PM 75.9 °F 48.9 °F 38% 29.53 in 10.0 mi ESE 13.8 mph 24.2 mph N/A   Clear
6:53 PM 73.0 °F 52.0 °F 48% 29.52 in 10.0 mi ESE 15.0 mph 25.3 mph N/A   Clear
7:53 PM 70.0 °F 53.1 °F 55% 29.51 in 10.0 mi ESE 16.1 mph 24.2 mph N/A   Clear
8:53 PM 68.0 °F 53.1 °F 59% 29.53 in 10.0 mi ESE 11.5 mph - N/A   Clear
9:53 PM 66.9 °F 55.9 °F 68% 29.53 in 10.0 mi SE 15.0 mph 21.9 mph N/A   Clear
10:53 PM 64.9 °F 57.0 °F 75% 29.53 in 10.0 mi SE 15.0 mph - N/A   Partly Cloudy
11:53 PM 64.0 °F 59.0 °F 84% 29.54 in 10.0 mi SE 9.2 mph - N/A   Partly Cloudy